Location: Unspecified
(43.4354°N, 0.0000°E)
Time: 12:27:32
(UTC+00:00)

Tiros 1 - All Passes

Search period start: 25 June 2019 00:00
Search period end: 05 July 2019 00:00
Orbit: 631 x 664 km, 48.4° (Epoch: 24 June)

Date Brightness Start Highest point End Pass type
(mag) Time Alt. Az. Time Alt. Az. Time Alt. Az.
25 Jun - 00:42:53 10° WNW 00:47:23 45° N 00:51:53 10° ENE visible
25 Jun - 02:25:29 10° WNW 02:30:06 59° NNE 02:34:40 10° E visible
25 Jun - 04:07:49 10° WNW 04:12:16 47° SW 04:16:41 10° SE daylight
25 Jun - 20:06:03 10° SSE 20:07:24 11° SE 20:08:45 10° ESE daylight
25 Jun - 21:44:14 10° SW 21:48:49 52° SSE 21:53:22 10° ENE visible
25 Jun - 23:26:25 10° W 23:31:02 57° NNW 23:35:39 10° ENE visible
26 Jun - 01:09:15 10° WNW 01:13:46 46° N 01:18:14 10° E visible
26 Jun - 02:51:37 10° WNW 02:56:17 90° NNE 03:00:55 10° ESE visible
26 Jun - 04:34:24 10° W 04:38:04 23° SW 04:41:42 10° S daylight
26 Jun - 20:29:11 10° SSW 20:33:01 25° SE 20:36:50 10° E visible
26 Jun - 22:10:06 10° WSW 22:14:50 88° NNW 22:19:33 10° ENE visible
26 Jun - 23:52:50 10° W 23:57:22 46° N 00:01:53 10° ENE visible
27 Jun - 01:35:29 10° WNW 01:40:06 57° NNE 01:44:40 10° E visible
27 Jun - 03:17:48 10° WNW 03:22:18 50° SW 03:26:46 10° SE visible
27 Jun - 05:03:05 10° WSW 05:03:39 10° SW 05:04:14 10° SW daylight
27 Jun - 19:17:09 10° SE 19:17:28 10° SE 19:17:48 10° SE daylight
27 Jun - 20:54:17 10° SW 20:58:50 49° SE 21:03:22 10° ENE visible
27 Jun - 22:36:22 10° W 22:41:02 59° NNW 22:45:40 10° ENE visible
28 Jun - 00:19:14 10° WNW 00:23:45 46° N 00:28:14 10° ENE visible
28 Jun - 02:01:37 10° WNW 02:06:18 86° NNE 02:10:56 10° ESE visible
28 Jun - 03:44:19 10° W 03:48:07 25° SW 03:51:53 10° SSE visible
28 Jun - 19:39:21 10° S 19:43:04 23° SE 19:46:45 10° E daylight
28 Jun - 21:20:06 10° WSW 21:24:51 88° SSE 21:29:34 10° ENE visible
28 Jun - 23:02:48 10° W 23:07:21 47° N 23:11:53 10° ENE visible
29 Jun - 00:45:28 10° WNW 00:50:05 56° NNE 00:54:39 10° E visible
29 Jun - 02:27:47 10° WNW 02:32:20 54° SSW 02:36:50 10° SE visible
29 Jun - 04:12:17 10° WSW 04:13:44 11° SW 04:15:11 10° SSW daylight
29 Jun - 20:04:20 10° SW 20:08:52 45° SE 20:13:22 10° ENE daylight
29 Jun - 21:46:20 10° W 21:51:01 61° NNW 21:55:41 10° ENE visible
29 Jun - 23:29:12 10° WNW 23:33:44 45° N 23:38:13 10° ENE visible
30 Jun - 01:11:37 10° WNW 01:16:19 82° NNE 01:20:57 10° ESE visible
30 Jun - 02:54:15 10° W 02:58:10 27° SW 03:02:03 10° SSE visible
30 Jun - 18:49:32 10° S 18:53:06 21° SE 18:56:41 10° E daylight
30 Jun - 20:30:05 10° WSW 20:34:51 83° SSE 20:39:35 10° ENE visible
30 Jun - 22:12:45 10° W 22:17:20 47° N 22:21:53 10° ENE visible
30 Jun - 23:55:27 10° WNW 00:00:05 54° NNE 00:04:39 10° E visible
01 Jul - 01:37:46 10° WNW 01:42:22 58° SSW 01:46:54 10° SE visible
01 Jul - 03:21:52 10° WSW 03:23:48 12° SW 03:25:45 10° SSW visible
01 Jul - 19:14:23 10° SW 19:18:53 42° SE 19:23:21 10° ENE daylight
01 Jul - 20:56:18 10° W 21:01:01 63° NNW 21:05:42 10° ENE visible
01 Jul - 22:39:10 10° WNW 22:43:43 45° N 22:48:13 10° ENE visible
02 Jul - 00:21:37 10° WNW 00:26:19 78° NNE 00:30:58 10° ESE visible
02 Jul - 02:04:12 10° W 02:08:13 29° SW 02:12:13 10° SSE visible
02 Jul - 17:59:43 10° S 18:03:09 20° SE 18:06:35 10° E daylight
02 Jul - 19:40:05 10° WSW 19:44:51 79° SSE 19:49:36 10° ENE daylight
02 Jul - 21:22:43 10° W 21:27:19 48° N 21:31:53 10° ENE visible
02 Jul - 23:05:26 10° WNW 23:10:04 53° NNE 23:14:38 10° E visible
03 Jul - 00:47:45 10° WNW 00:52:23 62° SSW 00:56:58 10° SE visible
03 Jul - 02:31:33 10° WSW 02:33:52 14° SW 02:36:11 10° SSW visible
03 Jul - 18:24:27 10° SSW 18:28:54 40° SE 18:33:20 10° ENE daylight
03 Jul - 20:06:16 10° WSW 20:11:00 66° NNW 20:15:43 10° ENE daylight
03 Jul - 21:49:08 10° WNW 21:53:41 45° N 21:58:12 10° ENE visible
03 Jul - 23:31:36 10° WNW 23:36:19 75° NNE 23:40:59 10° ESE visible
04 Jul - 01:14:08 10° WNW 01:18:16 31° SW 01:22:22 10° SSE visible
04 Jul - 17:09:56 10° S 17:13:12 18° SE 17:16:27 10° E daylight
04 Jul - 18:50:05 10° SW 18:54:52 75° SSE 18:59:36 10° ENE daylight
04 Jul - 20:32:40 10° W 20:37:18 49° N 20:41:54 10° ENE visible
04 Jul - 22:15:25 10° WNW 22:20:03 51° N 22:24:38 10° E visible
